Weather in Bogorodskoye

Russia / Republic of Tatarstan     55°44′27″N   49°23′01″E
temp.,
°C
wind,
m/s
gust,
m/s
humid.,
%
clouds,
%
prec.,
mm/h
press.,
hPa
HPBL,
m
17 october, sun
sun1700:00+7ssw6135560 0.0 1018415
03:00+6ssw5126196 0.0 1017362
06:00+6ssw5126497 0.0 1016350
09:00+9sw6125637 0.0 1016713
12:00+11wsw61054100 0.0 10151520
15:00+11sw6851100 0.0 10151307
18:00+8ssw3865100 0.0 1015142
21:00+6ssw357495 0.0 101483
18 october, mon
mon1800:00+6ssw3679100 0.0 1013114
03:00+4sw348893 0.0 101360
06:00+4sw3389100 0.0 101242
09:00+7sw3672100 0.0 1012285
12:00+10sw465972 0.0 1011906
15:00+10sw4658100 0.0 10091206
18:00+8ssw3767100 0.0 1009206
21:00+8sw3867100 0.0 1008352
19 october, tue
tue1900:00+6wsw4972100 0.0 1008309
03:00+4wsw3785100 0.0 1009170
06:00+3wnw3591100 0.0 1009150
09:00+4nnw3471100 0.0 1010371
12:00+6wnw3359100 0.0 1010849
15:00+6wnw3358100 0.0 10101024
18:00+4nw3569100 0.0 1011105
21:00+4nnw147099 0.0 1011246
20 october, wed
wed2000:00+1nw22795 0.0 101221
03:000nw33865 0.0 101234
06:00−1nw349223 0.0 101283
09:00+2nnw56775 0.0 1013391
12:00+4nnw676298 0.1 10131265
15:00+3nnw6761100 0.3 10151274
18:00+1nw4106694 0.0 1016315
21:00−1nw410775 0.0 1017257
21 october, thu
thu2100:00−3nw37925 0.0 1018166
03:00−4nw22915 0.0 101931
06:00−4w229154 0.0 101923
09:000sw357282 0.0 1019314
12:00+3sw685498 0.0 1017739
15:00+3ssw7124181 0.0 1015740
18:00+4ssw81548100 0.0 1012673
21:00+4ssw81665100 0.5 1009704